• In Hungary
  • List of Countries
  • For 7 days
  • Water Temperature
  • Satellite Maps
  • Weather Map
  • News
  • Weather Widgets
  • user-avatar
    Login

    Hourly Weather Marevka

    Today, 21 June, Thursday

    Time Temperature Precipitation Wind Pressure Humidity
    00:00 +12°C° 0 mm 2 mps 736 mmHg 78%
    01:00 +12°C° 0 mm 2 mps 736 mmHg 79%
    02:00 +9°C° 0 mm 2 mps 736 mmHg 90%
    03:00 +10°C° 0 mm 2 mps 736 mmHg 87%
    04:00 +12°C° 0 mm 2 mps 736 mmHg 85%
    05:00 +13°C° 0 mm 2 mps 736 mmHg 82%
    06:00 +13°C° 0 mm 3 mps 736 mmHg 76%
    07:00 +16°C° 0 mm 3 mps 736 mmHg 71%
    08:00 +18°C° 0 mm 3 mps 736 mmHg 65%
    09:00 +19°C° 0 mm 3 mps 736 mmHg 65%
    10:00 +20°C° 0 mm 4 mps 736 mmHg 65%
    11:00 +21°C° 0 mm 4 mps 735 mmHg 65%
    12:00 +22°C° 0.3 mm 4 mps 735 mmHg 63%
    13:00 +23°C° 0.3 mm 4 mps 735 mmHg 61%
    14:00 +24°C° 0 mm 3 mps 736 mmHg 62%
    15:00 +24°C° 0.3 mm 3 mps 735 mmHg 62%
    16:00 +24°C° 0.3 mm 3 mps 735 mmHg 63%
    17:00 +24°C° 0.3 mm 2 mps 735 mmHg 63%
    18:00 +23°C° 0 mm 2 mps 735 mmHg 70%
    19:00 +20°C° 0 mm 2 mps 734 mmHg 76%
    20:00 +19°C° 0 mm 2 mps 734 mmHg 82%
    21:00 +18°C° 0 mm 2 mps 734 mmHg 84%
    22:00 +18°C° 0 mm 3 mps 734 mmHg 86%
    23:00 +17°C° 0 mm 3 mps 734 mmHg 88%

    Tomorrow, 22 June, Friday

    Time Temperature Precipitation Wind Pressure Humidity
    00:00 +17°C° 0 mm 3 mps 734 mmHg 88%
    01:00 +17°C° 0 mm 3 mps 733 mmHg 87%
    02:00 +17°C° 0 mm 4 mps 733 mmHg 87%
    03:00 +18°C° 0 mm 4 mps 732 mmHg 85%
    04:00 +18°C° 0 mm 4 mps 732 mmHg 82%
    05:00 +19°C° 0 mm 5 mps 731 mmHg 80%
    06:00 +19°C° 0.4 mm 5 mps 731 mmHg 83%
    07:00 +20°C° 0.4 mm 5 mps 731 mmHg 87%
    08:00 +20°C° 0.4 mm 5 mps 731 mmHg 90%
    09:00 +21°C° 0.5 mm 5 mps 731 mmHg 90%
    10:00 +21°C° 0.5 mm 5 mps 731 mmHg 90%
    11:00 +22°C° 0.5 mm 4 mps 731 mmHg 90%
    12:00 +20°C° 0.8 mm 4 mps 731 mmHg 91%
    13:00 +19°C° 0.8 mm 4 mps 732 mmHg 92%
    14:00 +18°C° 0.8 mm 3 mps 732 mmHg 93%
    15:00 +17°C° 0.1 mm 3 mps 732 mmHg 92%
    16:00 +16°C° 0.1 mm 3 mps 732 mmHg 91%
    17:00 +14°C° 0.1 mm 3 mps 733 mmHg 90%
    18:00 +15°C° 0 mm 2 mps 733 mmHg 89%
    19:00 +14°C° 0 mm 2 mps 733 mmHg 89%
    20:00 +14°C° 0 mm 2 mps 734 mmHg 89%
    21:00 +13°C° 0 mm 2 mps 734 mmHg 91%
    22:00 +12°C° 0 mm 2 mps 735 mmHg 94%
    23:00 +10°C° 0 mm 2 mps 735 mmHg 97%

    Day after tomorrow, 23 June, Saturday

    Time Temperature Precipitation Wind Pressure Humidity
    00:00 +10°C° 0 mm 2 mps 735 mmHg 96%
    01:00 +10°C° 0 mm 1 mps 736 mmHg 96%
    02:00 +10°C° 0 mm 1 mps 736 mmHg 95%
    03:00 +10°C° 0 mm 1 mps 736 mmHg 92%
    04:00 +11°C° 0 mm 1 mps 736 mmHg 89%
    05:00 +12°C° 0 mm 1 mps 737 mmHg 85%
    06:00 +13°C° 0 mm 1 mps 737 mmHg 82%
    07:00 +14°C° 0 mm 1 mps 737 mmHg 79%
    08:00 +14°C° 0 mm 1 mps 737 mmHg 75%
    09:00 +14°C° 0.1 mm 1 mps 737 mmHg 76%
    10:00 +14°C° 0.1 mm 1 mps 737 mmHg 77%
    11:00 +14°C° 0.1 mm 1 mps 737 mmHg 78%
    12:00 +14°C° 0.2 mm 1 mps 736 mmHg 80%
    13:00 +14°C° 0.2 mm 2 mps 736 mmHg 83%
    14:00 +14°C° 0.2 mm 2 mps 736 mmHg 86%
    15:00 +14°C° 0.5 mm 2 mps 735 mmHg 89%
    16:00 +13°C° 0.5 mm 2 mps 735 mmHg 92%
    17:00 +13°C° 0.5 mm 2 mps 735 mmHg 95%
    18:00 +11°C° 0.8 mm 3 mps 734 mmHg 95%
    19:00 +11°C° 0.8 mm 3 mps 734 mmHg 96%
    20:00 +11°C° 0.8 mm 3 mps 734 mmHg 96%
    21:00 +11°C° 1.8 mm 3 mps 733 mmHg 97%
    22:00 +11°C° 1.8 mm 3 mps 733 mmHg 97%
    23:00 +11°C° 1.8 mm 4 mps 732 mmHg 97%

    24 June, Sunday

    Time Temperature Precipitation Wind Pressure Humidity
    00:00 +11°C° 2.9 mm 3 mps 732 mmHg 98%
    01:00 +12°C° 2.9 mm 3 mps 731 mmHg 98%
    02:00 +12°C° 2.9 mm 3 mps 730 mmHg 98%
    03:00 +12°C° 2.8 mm 3 mps 730 mmHg 98%
    04:00 +13°C° 2.8 mm 3 mps 729 mmHg 98%
    05:00 +13°C° 2.8 mm 3 mps 729 mmHg 98%
    06:00 +13°C° 0.9 mm 3 mps 729 mmHg 97%
    07:00 +13°C° 0.9 mm 3 mps 729 mmHg 96%
    08:00 +15°C° 0.9 mm 2 mps 729 mmHg 96%
    09:00 +16°C° 0 mm 2 mps 729 mmHg 92%
    10:00 +17°C° 0 mm 2 mps 729 mmHg 88%
    11:00 +18°C° 0 mm 2 mps 729 mmHg 84%
    12:00 +18°C° 0.2 mm 3 mps 730 mmHg 83%
    13:00 +18°C° 0.2 mm 4 mps 730 mmHg 81%
    14:00 +19°C° 0.2 mm 5 mps 730 mmHg 80%
    15:00 +17°C° 0.1 mm 5 mps 730 mmHg 78%
    16:00 +15°C° 0.1 mm 5 mps 731 mmHg 75%
    17:00 +14°C° 0.1 mm 6 mps 731 mmHg 73%
    18:00 +14°C° 0 mm 6 mps 732 mmHg 75%
    19:00 +13°C° 0 mm 5 mps 732 mmHg 78%
    20:00 +12°C° 0 mm 5 mps 733 mmHg 80%
    21:00 +12°C° 0 mm 5 mps 733 mmHg 81%
    22:00 +10°C° 0 mm 5 mps 734 mmHg 83%
    23:00 +10°C° 0 mm 5 mps 734 mmHg 84%

    25 June, Monday

    Time Temperature Precipitation Wind Pressure Humidity
    00:00 +9°C° 0 mm 5 mps 735 mmHg 86%
    01:00 +9°C° 0 mm 5 mps 735 mmHg 87%
    02:00 +10°C° 0 mm 4 mps 736 mmHg 89%
    03:00 +10°C° 0 mm 4 mps 736 mmHg 88%
    04:00 +10°C° 0 mm 4 mps 737 mmHg 88%
    05:00 +10°C° 0 mm 4 mps 737 mmHg 87%
    06:00 +11°C° 0 mm 4 mps 738 mmHg 81%
    07:00 +13°C° 0 mm 4 mps 738 mmHg 75%
    08:00 +14°C° 0 mm 3 mps 738 mmHg 69%
    09:00 +17°C° 0 mm 3 mps 739 mmHg 63%
    10:00 +18°C° 0 mm 4 mps 739 mmHg 57%
    11:00 +20°C° 0 mm 4 mps 739 mmHg 51%
    12:00 +20°C° 0.2 mm 4 mps 739 mmHg 53%
    13:00 +20°C° 0.2 mm 4 mps 739 mmHg 55%
    14:00 +20°C° 0.2 mm 4 mps 739 mmHg 57%
    15:00 +20°C° 0.3 mm 3 mps 739 mmHg 60%
    16:00 +19°C° 0.3 mm 3 mps 739 mmHg 63%
    17:00 +19°C° 0.3 mm 3 mps 739 mmHg 66%
    18:00 +18°C° 0.2 mm 2 mps 740 mmHg 74%
    19:00 +16°C° 0.2 mm 2 mps 740 mmHg 82%
    20:00 +15°C° 0.2 mm 1 mps 740 mmHg 90%
    21:00 +14°C° 0 mm 1 mps 740 mmHg 92%
    22:00 +13°C° 0 mm 1 mps 740 mmHg 94%
    23:00 +12°C° 0 mm 1 mps 740 mmHg 96%

    26 June, Tuesday

    Time Temperature Precipitation Wind Pressure Humidity
    00:00 +12°C° 0 mm 1 mps 741 mmHg 96%
    01:00 +11°C° 0 mm 1 mps 741 mmHg 97%
    02:00 +11°C° 0 mm 1 mps 741 mmHg 97%
    03:00 +11°C° 0 mm 1 mps 741 mmHg 97%
    04:00 +12°C° 0 mm 1 mps 742 mmHg 96%
    05:00 +12°C° 0 mm 1 mps 742 mmHg 96%
    06:00 +14°C° 0 mm 1 mps 742 mmHg 88%
    07:00 +16°C° 0 mm 1 mps 742 mmHg 81%
    08:00 +17°C° 0 mm 2 mps 743 mmHg 74%
    09:00 +19°C° 0 mm 2 mps 743 mmHg 67%
    10:00 +20°C° 0 mm 2 mps 743 mmHg 60%
    11:00 +21°C° 0 mm 3 mps 743 mmHg 53%
    12:00 +22°C° 0.1 mm 3 mps 743 mmHg 51%
    13:00 +22°C° 0.1 mm 3 mps 743 mmHg 48%
    14:00 +24°C° 0.1 mm 3 mps 743 mmHg 46%
    15:00 +22°C° 0 mm 3 mps 743 mmHg 50%
    16:00 +23°C° 0 mm 2 mps 743 mmHg 54%
    17:00 +21°C° 0 mm 2 mps 743 mmHg 58%
    18:00 +21°C° 0 mm 1 mps 743 mmHg 65%
    19:00 +19°C° 0 mm 1 mps 743 mmHg 73%
    20:00 +18°C° 0 mm 1 mps 743 mmHg 80%
    21:00 +16°C° 0 mm 1 mps 743 mmHg 83%
    22:00 +15°C° 0 mm 1 mps 743 mmHg 86%
    23:00 +13°C° 0 mm 1 mps 743 mmHg 90%
    Show more